| time (UTC) | temp C | wind direction | speed KPH | gust KPH | rain 1hr cm | rain 24hr cm | rain mn cm | humidity % | barometer mb |
| 20260831144532 | 15 | 222 | 0.0 | 1.6 | 0.00 | 0.00 | 0.00 | 61 | 1014.4 |
| 20260831143033 | 15 | 233 | 3.2 | 4.8 | 0.00 | 0.00 | 0.00 | 62 | 1014.4 |
| 20260831141502 | 14 | 345 | 0.0 | 1.6 | 0.00 | 0.00 | 0.00 | 60 | 1014.1 |
| 20260831140100 | 13 | 345 | 0.0 | 4.8 | 0.00 | 0.00 | 0.00 | 61 | 1014.2 |
| 20260831134540 | 12 | 354 | 3.2 | 6.4 | 0.00 | 0.00 | 0.00 | 65 | 1014.2 |
| 20260831133035 | 12 | 227 | 3.2 | 4.8 | 0.00 | 0.00 | 0.00 | 61 | 1014.2 |
| 20260831131517 | 12 | 15 | 0.0 | 1.6 | 0.00 | 0.00 | 0.00 | 63 | 1014.2 |
| 20260831130020 | 12 | 14 | 3.2 | 6.4 | 0.00 | 0.00 | 0.00 | 64 | 1014.1 |
| 20260831124558 | 13 | 336 | 0.0 | 14.5 | 0.00 | 0.00 | 0.00 | 57 | 1014.0 |
| 20260831123057 | 13 | 353 | 12.9 | 14.5 | 0.00 | 0.00 | 0.00 | 59 | 1013.9 |
| 20260831121539 | 15 | 64 | 1.6 | 14.5 | 0.00 | 0.00 | 0.00 | 56 | 1014.0 |
| 20260831120039 | 14 | 4 | 12.9 | 19.3 | 0.00 | 0.00 | 0.00 | 59 | 1013.7 |
| 20260831114518 | 13 | 354 | 14.5 | 16.1 | 0.00 | 0.00 | 0.00 | 64 | 1013.6 |
| 20260831113015 | 13 | 345 | 4.8 | 14.5 | 0.00 | 0.00 | 0.00 | 60 | 1013.8 |
| 20260831111611 | 13 | 18 | 4.8 | 6.4 | 0.00 | 0.00 | 0.00 | 59 | 1013.8 |
| 20260831110134 | 13 | 16 | 4.8 | 6.4 | 0.00 | 0.00 | 0.00 | 56 | 1013.8 |
| 20260831104546 | 13 | 152 | 1.6 | 3.2 | 0.00 | 0.00 | 0.00 | 60 | 1013.8 |
| 20260831103049 | 12 | 150 | 1.6 | 3.2 | 0.00 | 0.00 | 0.00 | 62 | 1013.8 |
| 20260831101546 | 12 | 150 | 0.0 | 0.0 | 0.00 | 0.00 | 0.00 | 62 | 1013.9 |
| 20260831100046 | 12 | 151 | 0.0 | 0.0 | 0.00 | 0.00 | 0.00 | 61 | 1013.7 |
| 20260831094542 | 12 | 151 | 0.0 | 1.6 | 0.00 | 0.00 | 0.00 | 62 | 1014.0 |
| 20260831093041 | 12 | 151 | 0.0 | 1.6 | 0.00 | 0.00 | 0.00 | 62 | 1014.2 |
| 20260831091549 | 13 | 150 | 0.0 | 3.2 | 0.00 | 0.00 | 0.00 | 56 | 1014.2 |
| 20260831090041 | 13 | 151 | 0.0 | 3.2 | 0.00 | 0.00 | 0.00 | 58 | 1014.2 |
| 20260831084538 | 13 | 151 | 1.6 | 3.2 | 0.00 | 0.00 | 0.00 | 55 | 1014.3 |
| 20260831083027 | 13 | 283 | 1.6 | 3.2 | 0.00 | 0.00 | 0.00 | 57 | 1014.2 |
| 20260831081529 | 13 | 85 | 0.0 | 1.6 | 0.00 | 0.00 | 0.00 | 57 | 1014.1 |
| 20260831080028 | 13 | 85 | 1.6 | 1.6 | 0.00 | 0.00 | 0.00 | 59 | 1014.2 |
| 20260831074537 | 14 | 85 | 0.0 | 1.6 | 0.00 | 0.00 | 0.00 | 58 | 1014.2 |
| 20260831073057 | 15 | 85 | 0.0 | 0.0 | 0.00 | 0.00 | 0.00 | 56 | 1014.2 |
| 20260831071526 | 15 | 79 | 0.0 | 0.0 | 0.00 | 0.00 | 0.00 | 48 | 1014.2 |
| 20260831070031 | 17 | 89 | 4.8 | 6.4 | 0.00 | 0.00 | 0.00 | 44 | 1014.2 |
| 20260831064534 | 17 | 313 | 0.0 | 4.8 | 0.00 | 0.00 | 0.00 | 45 | 1014.2 |
| 20260831063014 | 19 | 325 | 3.2 | 4.8 | 0.00 | 0.00 | 0.00 | 42 | 1014.2 |
| 20260831061507 | 20 | 326 | 3.2 | 4.8 | 0.00 | 0.00 | 0.00 | 41 | 1014.1 |
| 20260831060101 | 19 | 320 | 4.8 | 4.8 | 0.00 | 0.00 | 0.00 | 42 | 1014.0 |
| 20260831054551 | 20 | 311 | 0.0 | 4.8 | 0.00 | 0.00 | 0.00 | 41 | 1014.2 |
| 20260831053034 | 20 | 311 | 3.2 | 4.8 | 0.00 | 0.00 | 0.00 | 41 | 1014.3 |
| 20260831051531 | 20 | 307 | 3.2 | 4.8 | 0.00 | 0.00 | 0.00 | 41 | 1014.3 |
| 20260831050033 | 20 | 321 | 3.2 | 6.4 | 0.00 | 0.00 | 0.00 | 41 | 1014.3 |
| 20260831044513 | 20 | 324 | 0.0 | 0.0 | 0.00 | 0.00 | 0.00 | 41 | 1014.3 |
| 20260831043001 | 21 | 323 | 1.6 | 6.4 | 0.00 | 0.00 | 0.00 | 40 | 1014.2 |
| 20260831041503 | 21 | 335 | 3.2 | 4.8 | 0.00 | 0.00 | 0.00 | 40 | 1014.2 |
| 20260831040100 | 20 | 335 | 4.8 | 8.0 | 0.00 | 0.00 | 0.00 | 40 | 1014.2 |
| 20260831034600 | 21 | 342 | 6.4 | 8.0 | 0.00 | 0.00 | 0.00 | 40 | 1014.2 |
| 20260831033059 | 21 | 354 | 4.8 | 4.8 | 0.00 | 0.00 | 0.00 | 40 | 1014.1 |
| 20260831031558 | 21 | 346 | 3.2 | 6.4 | 0.00 | 0.00 | 0.00 | 40 | 1014.0 |
| 20260831024558 | 21 | 45 | 3.2 | 4.8 | 0.00 | 0.00 | 0.00 | 36 | 1013.8 |
| 20260831023039 | 22 | 58 | 6.4 | 9.7 | 0.00 | 0.00 | 0.00 | 35 | 1013.7 |
| 20260831021539 | 22 | 60 | 6.4 | 8.0 | 0.00 | 0.00 | 0.00 | 34 | 1013.6 |
| 20260831020022 | 23 | 90 | 8.0 | 14.5 | 0.00 | 0.00 | 0.00 | 33 | 1013.5 |
| 20260831014522 | 23 | 93 | 14.5 | 17.7 | 0.00 | 0.00 | 0.00 | 31 | 1013.5 |
| 20260831013008 | 25 | 113 | 6.4 | 12.9 | 0.00 | 0.00 | 0.00 | 25 | 1013.5 |
| 20260831011506 | 25 | 198 | 4.8 | 12.9 | 0.00 | 0.00 | 0.00 | 24 | 1013.4 |
| 20260831010007 | 25 | 225 | 8.0 | 17.7 | 0.00 | 0.00 | 0.00 | 22 | 1013.4 |
| 20260831004509 | 26 | 195 | 12.9 | 20.9 | 0.00 | 0.00 | 0.00 | 23 | 1013.5 |
| 20260831003007 | 26 | 207 | 14.5 | 22.5 | 0.00 | 0.00 | 0.00 | 22 | 1013.5 |
| 20260831001508 | 26 | 248 | 17.7 | 29.0 | 0.00 | 0.00 | 0.00 | 21 | 1013.6 |
| 20260831000005 | 26 | 174 | 8.0 | 17.7 | 0.00 | 0.00 | 0.00 | 21 | 1013.6 |
| 20260830234608 | 26 | 217 | 19.3 | 27.4 | 0.00 | 0.00 | 0.00 | 21 | 1013.8 |
| 20260830233104 | 26 | 219 | 17.7 | 27.4 | 0.00 | 0.00 | 0.00 | 24 | 1014.0 |
| 20260830231556 | 25 | 212 | 19.3 | 30.6 | 0.00 | 0.00 | 0.00 | 25 | 1014.1 |
| 20260830230041 | 25 | 191 | 9.7 | 20.9 | 0.00 | 0.00 | 0.00 | 26 | 1014.3 |
| 20260830224538 | 25 | 272 | 11.3 | 19.3 | 0.00 | 0.00 | 0.00 | 26 | 1014.5 |
| 20260830223035 | 24 | 204 | 11.3 | 24.1 | 0.00 | 0.00 | 0.00 | 30 | 1014.7 |
| 20260830221533 | 25 | 188 | 11.3 | 24.1 | 0.00 | 0.00 | 0.00 | 30 | 1014.9 |
| 20260830220053 | 23 | 191 | 8.0 | 30.6 | 0.00 | 0.00 | 0.00 | 31 | 1015.2 |
| 20260830214528 | 23 | 173 | 8.0 | 22.5 | 0.00 | 0.00 | 0.00 | 34 | 1015.4 |
| 20260830213026 | 23 | 139 | 6.4 | 20.9 | 0.00 | 0.00 | 0.00 | 34 | 1015.6 |
| 20260830211527 | 23 | 228 | 20.9 | 29.0 | 0.00 | 0.00 | 0.00 | 35 | 1015.9 |
| 20260830210003 | 23 | 182 | 17.7 | 25.7 | 0.00 | 0.00 | 0.00 | 35 | 1015.9 |
| 20260830204616 | 22 | 222 | 6.4 | 25.7 | 0.00 | 0.00 | 0.00 | 36 | 1016.0 |
| 20260830203042 | 22 | 186 | 12.9 | 27.4 | 0.00 | 0.00 | 0.00 | 37 | 1016.2 |
| 20260830201548 | 22 | 204 | 16.1 | 29.0 | 0.00 | 0.00 | 0.00 | 37 | 1016.3 |
| 20260830200032 | 21 | 195 | 12.9 | 29.0 | 0.00 | 0.00 | 0.00 | 39 | 1016.4 |
| 20260830194517 | 21 | 257 | 14.5 | 24.1 | 0.00 | 0.00 | 0.00 | 39 | 1016.5 |
| 20260830193056 | 21 | 297 | 9.7 | 22.5 | 0.00 | 0.00 | 0.00 | 40 | 1016.8 |
| 20260830191619 | 21 | 243 | 16.1 | 27.4 | 0.00 | 0.00 | 0.00 | 42 | 1016.9 |
| 20260830190053 | 20 | 195 | 16.1 | 27.4 | 0.00 | 0.00 | 0.00 | 42 | 1017.1 |
| 20260830184538 | 20 | 253 | 12.9 | 29.0 | 0.00 | 0.00 | 0.00 | 44 | 1017.1 |
| 20260830183035 | 20 | 259 | 14.5 | 27.4 | 0.00 | 0.00 | 0.00 | 46 | 1017.3 |
| 20260830181533 | 19 | 203 | 19.3 | 32.2 | 0.00 | 0.00 | 0.00 | 46 | 1017.3 |
| 20260830180037 | 19 | 276 | 17.7 | 30.6 | 0.00 | 0.00 | 0.00 | 47 | 1017.3 |
| 20260830174534 | 19 | 243 | 20.9 | 27.4 | 0.00 | 0.00 | 0.00 | 46 | 1017.4 |
| 20260830173029 | 19 | 235 | 22.5 | 29.0 | 0.00 | 0.00 | 0.00 | 47 | 1017.4 |
| 20260830171627 | 18 | 190 | 20.9 | 33.8 | 0.00 | 0.00 | 0.00 | 50 | 1017.3 |
| 20260830170003 | 18 | 245 | 17.7 | 25.7 | 0.00 | 0.00 | 0.00 | 51 | 1017.5 |
| 20260830164600 | 17 | 224 | 19.3 | 27.4 | 0.00 | 0.00 | 0.00 | 52 | 1017.6 |
| 20260830163042 | 17 | 222 | 22.5 | 29.0 | 0.00 | 0.00 | 0.00 | 55 | 1017.7 |
| 20260830161542 | 17 | 255 | 20.9 | 29.0 | 0.00 | 0.00 | 0.00 | 56 | 1017.9 |
| 20260830160027 | 16 | 218 | 20.9 | 29.0 | 0.00 | 0.00 | 0.00 | 58 | 1017.8 |
| 20260830154516 | 16 | 232 | 22.5 | 30.6 | 0.00 | 0.00 | 0.00 | 59 | 1017.7 |
| 20260830153055 | 16 | 225 | 20.9 | 29.0 | 0.00 | 0.00 | 0.00 | 60 | 1017.7 |
| 20260830151551 | 15 | 217 | 24.1 | 32.2 | 0.00 | 0.00 | 0.00 | 61 | 1017.5 |
| 20260830150039 | 15 | 240 | 24.1 | 32.2 | 0.00 | 0.00 | 0.00 | 61 | 1017.5 |